CYBK

Baker Lake Airport

Baker Lake, Canada
Issued Wind Visibility Ceiling Temperature Dew Point Humidity Barometer
Sep-20
00:00 UTC
110°
7 KTS
20 miles Broken
18,000' AGL
C
46° F
C
41° F
82% 30.08" Hg
1018.8 hPa
VFR
Sep-19
23:00 UTC
110°
8 KTS
20 miles Broken
23,000' AGL
C
46° F
C
41° F
82% 30.07" Hg
1018.5 hPa
VFR
Sep-19
22:00 UTC
110°
9 KTS
20 miles Broken
23,000' AGL
C
48° F
C
39° F
71% 30.06" Hg
1018.3 hPa
VFR
Sep-19
21:00 UTC
110°
9 KTS
20 miles Broken
22,000' AGL
C
48° F
C
39° F
71% 30.06" Hg
1018.2 hPa
VFR
Sep-19
20:00 UTC
110°
8 KTS
20 miles Broken
22,000' AGL
C
48° F
C
39° F
71% 30.05" Hg
1017.9 hPa
VFR
Sep-19
19:00 UTC
110°
8 KTS
20 miles Broken
22,000' AGL
C
48° F
C
39° F
71% 30.05" Hg
1017.7 hPa
VFR
Sep-19
18:00 UTC
120°
7 KTS
20 miles Broken
22,000' AGL
C
48° F
C
41° F
76% 30.04" Hg
1017.4 hPa
VFR
Sep-19
17:00 UTC
080°
3 KTS
20 miles Broken
16,000' AGL
C
45° F
C
39° F
81% 30.03" Hg
1017.3 hPa
VFR
Sep-19
16:00 UTC
170°
4 KTS
20 miles Broken
22,000' AGL
C
45° F
C
39° F
81% 30.03" Hg
1017.1 hPa
VFR
Sep-19
15:44 UTC
190°
4 KTS
20 miles Broken
22,000' AGL
C
45° F
C
39° F
81% 30.02" Hg
1016.9 hPa
VFR
Sep-19
15:00 UTC
230°
7 KTS
2 miles Broken
22,000' AGL
C
41° F
C
39° F
93% 30.01" Hg
1016.6 hPa
IFR
Sep-19
14:00 UTC
240°
8 KTS
3 miles Broken
21,000' AGL
C
37° F
C
37° F
100% 29.99" Hg
1016 hPa
MVFR
Sep-19
13:44 UTC
230°
8 KTS
1/2 miles Broken
21,000' AGL
C
37° F
C
37° F
100% 29.99" Hg
1016 hPa
LIFR
Sep-19
13:22 UTC
230°
5 KTS
20 miles Broken
19,000' AGL
C
39° F
C
37° F
93% 29.99" Hg
1016 hPa
VFR
Sep-19
13:00 UTC
220°
4 KTS
20 miles Broken
19,000' AGL
C
36° F
C
36° F
100% 29.99" Hg
1016 hPa
VFR
Sep-19
12:00 UTC
270°
2 KTS
20 miles Broken
18,000' AGL
C
36° F
C
34° F
93% 29.99" Hg
1015.7 hPa
VFR
Sep-19
11:00 UTC
20 miles Broken
1,900' AGL
C
37° F
C
36° F
93% 29.98" Hg
1015.5 hPa
MVFR
Sep-19
10:00 UTC
230°
5 KTS
15 miles Broken
1,900' AGL
C
39° F
C
37° F
93% 29.97" Hg
1015.3 hPa
MVFR
Sep-19
09:00 UTC
240°
7 KTS
20 miles Broken
1,900' AGL
C
41° F
C
37° F
87% 29.97" Hg
1015 hPa
MVFR
Sep-19
08:00 UTC
240°
6 KTS
15 miles Broken
18,000' AGL
C
39° F
C
37° F
93% 29.96" Hg
1014.9 hPa
VFR
Sep-19
07:00 UTC
230°
7 KTS
15 miles Broken
18,000' AGL
C
39° F
C
37° F
93% 29.95" Hg
1014.6 hPa
VFR
Sep-19
06:00 UTC
210°
4 KTS
15 miles Broken
18,000' AGL
C
39° F
C
37° F
93% 29.95" Hg
1014.5 hPa
VFR
Sep-19
05:00 UTC
230°
5 KTS
15 miles   C
39° F
C
37° F
93% 29.94" Hg
1014.2 hPa
VFR
Sep-19
04:00 UTC
210°
7 KTS
15 miles   C
39° F
C
39° F
100% 29.93" Hg
1013.7 hPa
VFR
Sep-19
03:00 UTC
Varies @2 KTS 20 miles   C
39° F
C
37° F
93% 29.93" Hg
1013.7 hPa
VFR
Sep-19
02:00 UTC
180°
3 KTS
15 miles   C
41° F
C
39° F
93% 29.92" Hg
1013.6 hPa
VFR
Sep-19
01:00 UTC
180°
6 KTS
25 miles Broken
20,000' AGL
C
41° F
C
39° F
93% 29.92" Hg
1013.4 hPa
VFR